| time (UTC) | temp F | wind direction | speed knots | gust knots | rain 1hr in | rain 24hr in | rain mn in | humidity % | barometer mb |
| 20260508043103 | 49 | 310 | 0.0 | 1.7 | 0.00 | 0.00 | 0.00 | 87 | 1001.9 |
| 20260508041555 | 49 | 223 | 0.0 | 0.0 | 0.00 | 0.00 | 0.00 | 87 | 1001.9 |
| 20260508040055 | 49 | 223 | 0.0 | 0.0 | 0.00 | 0.00 | 0.00 | 87 | 1001.9 |
| 20260508034546 | 49 | 223 | 0.0 | 0.0 | 0.00 | 0.00 | 0.00 | 87 | 1002.2 |
| 20260508033042 | 49 | 223 | 0.0 | 0.0 | 0.00 | 0.00 | 0.00 | 87 | 1002.3 |
| 20260508031538 | 49 | 223 | 0.0 | 0.0 | 0.00 | 0.00 | 0.00 | 87 | 1002.3 |
| 20260508030035 | 49 | 223 | 0.0 | 0.0 | 0.00 | 0.00 | 0.00 | 87 | 1002.4 |
| 20260508024545 | 49 | 223 | 1.7 | 2.6 | 0.00 | 0.00 | 0.00 | 87 | 1002.3 |
| 20260508023035 | 49 | 223 | 0.0 | 1.7 | 0.00 | 0.00 | 0.00 | 87 | 1002.0 |
| 20260508021535 | 49 | 223 | 0.0 | 0.0 | 0.00 | 0.00 | 0.00 | 87 | 1002.1 |
| 20260508020033 | 49 | 223 | 0.0 | 0.9 | 0.00 | 0.00 | 0.00 | 87 | 1002.1 |
| 20260508014540 | 48 | 193 | 0.9 | 2.6 | 0.00 | 0.00 | 0.00 | 87 | 1002.3 |
| 20260508013032 | 48 | 191 | 0.9 | 3.5 | 0.00 | 0.00 | 0.00 | 87 | 1002.0 |
| 20260508011535 | 48 | 215 | 0.9 | 3.5 | 0.00 | 0.00 | 0.00 | 87 | 1002.2 |
| 20260508010035 | 48 | 210 | 1.7 | 6.1 | 0.00 | 0.00 | 0.00 | 87 | 1002.4 |
| 20260508004534 | 48 | 222 | 1.7 | 5.2 | 0.00 | 0.00 | 0.00 | 87 | 1002.4 |
| 20260508003030 | 48 | 230 | 0.0 | 2.6 | 0.00 | 0.00 | 0.00 | 87 | 1002.3 |
| 20260508001631 | 49 | 249 | 0.9 | 4.3 | 0.00 | 0.00 | 0.00 | 87 | 1002.6 |
| 20260508000028 | 49 | 202 | 1.7 | 7.0 | 0.00 | 0.00 | 0.00 | 87 | 1002.9 |
| 20260507234527 | 49 | 188 | 0.9 | 5.2 | 0.00 | 0.00 | 0.00 | 87 | 1002.5 |
| 20260507233038 | 49 | 200 | 0.9 | 5.2 | 0.00 | 0.00 | 0.00 | 87 | 1002.9 |
| 20260507231534 | 49 | 217 | 0.9 | 4.3 | 0.00 | 0.00 | 0.00 | 88 | 1003.2 |
| 20260507230025 | 49 | 173 | 1.7 | 4.3 | 0.00 | 0.00 | 0.00 | 88 | 1002.9 |
| 20260507224531 | 49 | 186 | 0.9 | 3.5 | 0.00 | 0.00 | 0.00 | 88 | 1003.2 |
| 20260507223026 | 49 | 252 | 1.7 | 4.3 | 0.00 | 0.00 | 0.00 | 88 | 1003.1 |
| 20260507221533 | 49 | 166 | 0.9 | 4.3 | 0.00 | 0.00 | 0.00 | 88 | 1003.3 |
| 20260507220022 | 49 | 210 | 0.9 | 4.3 | 0.00 | 0.00 | 0.00 | 88 | 1003.4 |
| 20260507214520 | 49 | 215 | 1.7 | 7.0 | 0.00 | 0.00 | 0.00 | 88 | 1002.9 |
| 20260507213019 | 49 | 254 | 3.5 | 7.0 | 0.00 | 0.00 | 0.00 | 89 | 1002.5 |
| 20260507211522 | 49 | 196 | 3.5 | 8.7 | 0.00 | 0.00 | 0.00 | 89 | 1002.6 |
| 20260507210012 | 50 | 183 | 3.5 | 8.7 | 0.00 | 0.00 | 0.00 | 89 | 1003.5 |
| 20260507204509 | 50 | 203 | 1.7 | 8.7 | 0.00 | 0.00 | 0.00 | 89 | 1004.1 |
| 20260507203007 | 50 | 199 | 3.5 | 17.4 | 0.00 | 0.00 | 0.00 | 90 | 1004.1 |
| 20260507201505 | 50 | 202 | 3.5 | 8.7 | 0.00 | 0.00 | 0.00 | 91 | 1004.8 |
| 20260507200002 | 50 | 233 | 3.5 | 7.8 | 0.00 | 0.00 | 0.00 | 92 | 1005.1 |
| 20260507194502 | 51 | 239 | 4.3 | 8.7 | 0.00 | 0.00 | 0.00 | 92 | 1004.9 |
| 20260507193003 | 52 | 207 | 1.7 | 9.6 | 0.00 | 0.00 | 0.00 | 93 | 1005.0 |
| 20260507191604 | 52 | 200 | 4.3 | 9.6 | 0.00 | 0.00 | 0.00 | 93 | 1005.1 |
| 20260507190105 | 52 | 198 | 4.3 | 12.2 | 0.00 | 0.00 | 0.00 | 94 | 1005.4 |
| 20260507184600 | 52 | 205 | 5.2 | 12.2 | 0.00 | 0.00 | 0.00 | 93 | 1005.9 |
| 20260507183054 | 53 | 209 | 3.5 | 9.6 | 0.00 | 0.00 | 0.00 | 93 | 1005.7 |
| 20260507181554 | 53 | 197 | 5.2 | 16.5 | 0.00 | 0.00 | 0.00 | 92 | 1005.4 |
| 20260507180052 | 54 | 159 | 7.0 | 19.1 | 0.00 | 0.00 | 0.00 | 91 | 1005.4 |
| 20260507174551 | 55 | 172 | 5.2 | 16.5 | 0.00 | 0.00 | 0.00 | 91 | 1005.5 |
| 20260507173050 | 55 | 202 | 5.2 | 12.2 | 0.00 | 0.00 | 0.00 | 91 | 1006.0 |
| 20260507171547 | 55 | 204 | 5.2 | 16.5 | 0.00 | 0.00 | 0.00 | 91 | 1005.9 |
| 20260507170046 | 55 | 235 | 2.6 | 17.4 | 0.00 | 0.00 | 0.00 | 91 | 1006.5 |
| 20260507164556 | 55 | 196 | 6.1 | 14.8 | 0.00 | 0.00 | 0.00 | 91 | 1006.7 |
| 20260507163040 | 55 | 188 | 5.2 | 13.0 | 0.00 | 0.00 | 0.00 | 91 | 1007.2 |
| 20260507161540 | 55 | 202 | 3.5 | 11.3 | 0.00 | 0.00 | 0.00 | 90 | 1008.1 |
| 20260507160039 | 56 | 190 | 7.0 | 12.2 | 0.00 | 0.00 | 0.00 | 91 | 1008.1 |
| 20260507154540 | 56 | 302 | 4.3 | 16.5 | 0.00 | 0.00 | 0.00 | 91 | 1008.4 |
| 20260507153034 | 56 | 159 | 7.0 | 19.1 | 0.00 | 0.00 | 0.00 | 91 | 1008.6 |
| 20260507151533 | 56 | 164 | 6.1 | 13.9 | 0.00 | 0.00 | 0.00 | 90 | 1009.1 |
| 20260507150029 | 55 | 192 | 6.1 | 13.0 | 0.00 | 0.00 | 0.00 | 90 | 1009.1 |
| 20260507144531 | 55 | 148 | 5.2 | 18.2 | 0.00 | 0.00 | 0.00 | 90 | 1009.3 |
| 20260507143031 | 55 | 179 | 6.1 | 14.8 | 0.00 | 0.00 | 0.00 | 90 | 1010.0 |
| 20260507141523 | 55 | 179 | 4.3 | 13.0 | 0.00 | 0.00 | 0.00 | 88 | 1010.4 |
| 20260507140021 | 54 | 209 | 4.3 | 10.4 | 0.00 | 0.00 | 0.00 | 87 | 1010.6 |
| 20260507134524 | 54 | 196 | 3.5 | 9.6 | 0.00 | 0.00 | 0.00 | 87 | 1010.7 |
| 20260507133017 | 54 | 231 | 4.3 | 13.0 | 0.00 | 0.00 | 0.00 | 87 | 1011.0 |
| 20260507131517 | 53 | 109 | 1.7 | 13.0 | 0.00 | 0.00 | 0.00 | 87 | 1010.7 |
| 20260507130014 | 53 | 242 | 4.3 | 8.7 | 0.00 | 0.00 | 0.00 | 87 | 1011.0 |
| 20260507124517 | 52 | 184 | 4.3 | 13.9 | 0.00 | 0.00 | 0.00 | 87 | 1010.7 |
| 20260507123013 | 52 | 192 | 5.2 | 13.0 | 0.00 | 0.00 | 0.00 | 87 | 1010.9 |
| 20260507121508 | 52 | 194 | 3.5 | 10.4 | 0.00 | 0.00 | 0.00 | 87 | 1011.8 |
| 20260507120007 | 52 | 186 | 4.3 | 12.2 | 0.00 | 0.00 | 0.00 | 87 | 1012.1 |
| 20260507114506 | 52 | 177 | 3.5 | 9.6 | 0.00 | 0.00 | 0.00 | 87 | 1012.6 |
| 20260507113012 | 52 | 204 | 2.6 | 5.2 | 0.00 | 0.00 | 0.00 | 88 | 1012.7 |
| 20260507111504 | 52 | 167 | 3.5 | 8.7 | 0.00 | 0.00 | 0.00 | 88 | 1012.4 |
| 20260507110002 | 51 | 196 | 4.3 | 10.4 | 0.00 | 0.00 | 0.00 | 88 | 1012.8 |
| 20260507104600 | 51 | 206 | 4.3 | 13.0 | 0.00 | 0.00 | 0.00 | 88 | 1012.8 |
| 20260507103059 | 51 | 188 | 2.6 | 8.7 | 0.00 | 0.00 | 0.00 | 89 | 1013.5 |
| 20260507101608 | 51 | 175 | 1.7 | 8.7 | 0.00 | 0.00 | 0.00 | 89 | 1013.0 |
| 20260507094604 | 51 | 190 | 4.3 | 10.4 | 0.00 | 0.00 | 0.00 | 89 | 1013.2 |
| 20260507093053 | 51 | 141 | 3.5 | 12.2 | 0.00 | 0.00 | 0.00 | 90 | 1013.3 |
| 20260507091552 | 51 | 167 | 4.3 | 13.0 | 0.00 | 0.00 | 0.00 | 90 | 1013.1 |
| 20260507090050 | 52 | 162 | 5.2 | 11.3 | 0.00 | 0.00 | 0.00 | 90 | 1013.2 |
| 20260507084556 | 52 | 183 | 3.5 | 10.4 | 0.00 | 0.00 | 0.00 | 91 | 1013.5 |
| 20260507083049 | 52 | 187 | 4.3 | 12.2 | 0.00 | 0.00 | 0.00 | 92 | 1013.4 |
| 20260507081546 | 51 | 135 | 2.6 | 10.4 | 0.00 | 0.00 | 0.00 | 92 | 1013.5 |
| 20260507080048 | 51 | 177 | 2.6 | 7.8 | 0.00 | 0.00 | 0.00 | 92 | 1014.0 |
| 20260507074542 | 51 | 206 | 1.7 | 4.3 | 0.00 | 0.00 | 0.00 | 92 | 1014.4 |
| 20260507073037 | 51 | 212 | 0.9 | 5.2 | 0.00 | 0.00 | 0.00 | 92 | 1014.6 |
| 20260507071535 | 51 | 186 | 1.7 | 7.8 | 0.00 | 0.00 | 0.00 | 92 | 1014.8 |
| 20260507070034 | 51 | 181 | 3.5 | 7.8 | 0.00 | 0.00 | 0.00 | 92 | 1014.8 |
| 20260507064532 | 52 | 124 | 3.5 | 8.7 | 0.00 | 0.00 | 0.00 | 92 | 1014.8 |
| 20260507063028 | 52 | 173 | 3.5 | 9.6 | 0.00 | 0.00 | 0.00 | 92 | 1015.0 |
| 20260507061526 | 52 | 187 | 2.6 | 8.7 | 0.00 | 0.00 | 0.00 | 93 | 1015.2 |
| 20260507060024 | 52 | 183 | 1.7 | 7.0 | 0.00 | 0.00 | 0.00 | 93 | 1015.4 |
| 20260507054530 | 52 | 171 | 2.6 | 8.7 | 0.00 | 0.00 | 0.00 | 94 | 1015.5 |
| 20260507053019 | 52 | 184 | 2.6 | 7.8 | 0.00 | 0.00 | 0.00 | 94 | 1015.8 |
| 20260507051517 | 52 | 185 | 2.6 | 7.0 | 0.00 | 0.00 | 0.00 | 94 | 1016.1 |
| 20260507050014 | 52 | 200 | 2.6 | 4.3 | 0.00 | 0.00 | 0.00 | 95 | 1016.4 |
| 20260507044512 | 52 | 221 | 3.5 | 6.1 | 0.00 | 0.00 | 0.00 | 95 | 1016.7 |